Temperature
20 20 20 20 18 17 18 19 19 19 19 19 19 18 18 17 18 17 17 17 17 17 17 17 17 17 17 17 17 18 18 18 17 17 17 17 17 17 17 17 17 17 17 17 17 17 17 17 17
20 20 20 20 17 17 18 19 19 19 19 19 19 18 18 17 17 18 17 17 17 17 17 17 17 17 17 17 17 17 17 17 17 17 17 17 17 17 17 17 17 17 17 17 17 17 17 17 17
20 20 20 17 17 18 19 19 19 19 20 19 19 18 18 17 18 18 18 17 18 18 17 17 17 17 17 17 17 17 17 17 17 17 17 17 17 17 17 17 17 17 17 17 17 17 17 17 17
21 21 20 17 19 18 19 19 19 19 20 19 19 18 18 18 18 18 18 18 18 18 17 17 17 17 17 17 17 17 17 17 17 17 17 17 17 17 17 17 17 17 17 17 17 17 17 17 17
21 20 17 18 19 19 19 19 19 19 19 19 18 17 17 18 18 18 18 18 18 18 17 17 17 17 17 17 17 17 17 17 17 17 17 17 17 17 17 17 17 16 17 17 17 17 17 17 17
21 18 17 18 19 19 19 20 19 19 19 19 18 17 17 18 18 18 18 18 18 17 17 17 17 17 17 17 17 17 17 17 17 17 16 16 16 17 17 17 16 16 16 16 16 16 16 17 17
20 17 17 18 18 19 20 20 19 19 19 19 19 17 18 18 18 18 18 18 18 17 17 17 17 17 17 17 17 17 17 17 16 16 16 16 16 16 16 16 16 16 16 16 16 16 16 16 16
21 17 18 18 18 19 20 20 20 19 19 19 19 18 18 18 18 18 18 18 17 17 17 17 17 17 17 17 17 17 17 17 16 16 16 16 16 16 16 16 16 16 16 16 16 16 16 16 16
21 17 17 18 19 19 20 20 20 20 19 19 19 19 19 18 18 18 18 18 18 17 17 17 17 17 17 17 17 17 17 17 16 16 16 16 16 16 16 16 16 16 16 16 16 16 16 16 16
20 17 19 19 19 19 20 20 20 19 19 19 19 19 19 18 18 18 18 18 18 18 17 17 17 17 17 17 17 17 17 17 16 16 16 16 16 16 16 16 16 16 16 16 16 16 16 15 16
19 18 19 20 20 20 20 20 20 19 18 19 19 19 19 18 18 18 18 18 18 17 17 17 17 17 17 17 17 17 17 16 16 16 16 16 16 16 16 16 16 16 16 16 15 15 15 15 15
19 19 20 20 21 20 20 20 19 19 20 20 20 20 19 18 18 18 18 18 18 17 17 17 17 17 17 17 17 17 16 16 16 16 16 16 16 16 16 16 16 16 15 15 15 15 15 15 15
19 20 20 21 21 20 20 19 19 19 20 20 20 19 19 19 18 18 18 18 17 17 17 17 17 17 17 17 16 16 16 16 16 16 16 16 16 16 16 15 15 15 15 15 15 15 15 15 15
20 20 20 20 20 20 19 19 19 19 20 20 19 19 19 19 18 18 18 18 18 17 17 17 17 17 17 17 16 16 16 16 16 16 16 16 16 15 15 15 15 15 15 15 15 15 15 15 15
20 19 19 20 20 20 20 19 19 20 20 19 19 19 19 19 18 18 18 18 18 17 17 17 17 17 17 16 16 16 16 16 16 16 16 15 15 15 15 15 15 15 15 15 15 15 14 14 14
19 19 18 19 20 20 20 19 18 19 19 19 19 19 19 19 19 19 18 18 18 17 17 17 17 17 17 16 16 16 16 16 15 15 15 15 15 15 15 15 15 15 15 14 14 14 14 14 14
18 18 18 19 19 19 19 18 18 19 19 18 18 18 19 19 18 18 18 18 18 18 17 17 17 17 17 16 16 16 16 15 15 15 15 15 15 15 15 15 15 15 14 14 14 14 14 14 14
18 18 19 19 19 19 18 18 17 18 18 18 18 18 18 19 19 19 18 18 18 18 17 17 17 17 16 16 16 16 16 15 15 15 15 15 15 15 15 15 14 14 14 14 14 14 14 14 14
19 19 19 19 19 18 18 17 17 17 17 17 18 18 18 19 19 19 18 18 18 17 17 17 17 17 16 16 16 16 16 15 15 15 15 15 15 14 14 14 14 14 14 14 14 14 14 14 13
19 19 19 19 19 19 18 17 17 17 17 18 18 18 18 19 18 18 18 18 18 18 17 17 17 17 16 16 16 16 16 15 15 15 15 15 14 14 14 14 14 14 14 14 14 14 13 13 13
19 19 19 19 18 18 18 17 17 17 17 18 18 18 18 18 19 19 18 18 18 18 17 17 17 17 16 16 16 16 15 15 15 15 15 14 14 14 14 14 14 14 14 14 13 13 13 13 13
19 19 19 19 18 16 18 16 17 16 16 16 17 17 18 18 19 19 19 18 18 18 18 17 17 16 16 16 16 16 16 15 15 15 15 14 14 14 14 14 14 14 14 13 13 13 13 13 13
19 19 19 18 17 16 16 16 16 16 16 16 16 17 18 19 19 19 19 19 18 18 18 17 17 16 16 16 16 16 15 15 15 15 15 14 14 14 14 14 14 13 13 13 13 13 13 13 13
19 18 17 15 15 16 16 16 16 15 16 16 17 18 18 19 19 19 19 18 18 18 18 17 17 17 16 16 16 15 15 15 15 15 15 14 14 14 14 14 13 13 13 13 13 13 13 13 12
18 17 16 16 15 15 16 16 16 17 16 16 17 18 18 19 19 19 19 18 18 18 18 17 17 17 16 16 16 15 15 15 15 15 14 14 14 14 14 13 13 13 13 13 13 13 13 13 13
18 17 16 16 15 15 16 15 16 17 17 17 18 18 18 19 19 19 18 18 18 18 18 17 17 17 16 16 16 15 15 15 15 14 14 14 14 14 13 13 13 13 13 13 12 12 12 12 12
17 16 16 15 15 15 15 15 16 17 17 17 17 18 18 18 19 19 18 18 18 18 18 17 17 17 16 16 16 15 15 15 14 14 14 14 14 13 13 13 13 13 12 12 12 12 12 12 12
17 15 14 15 15 15 16 16 16 17 17 16 16 17 18 18 18 19 18 18 18 18 17 17 17 16 16 16 15 15 15 14 14 14 14 14 13 13 13 13 12 12 12 12 12 12 12 12 12
17 16 14 13 14 14 15 15 16 16 16 16 16 17 18 18 18 18 18 18 18 17 17 17 17 16 16 15 15 15 15 14 14 14 13 13 13 13 12 12 12 12 12 12 12 12 11 11 11
18 17 15 15 15 13 14 15 16 15 15 16 16 17 18 18 18 18 18 18 17 17 17 17 16 16 16 15 15 15 14 14 14 13 13 13 13 12 12 12 12 12 11 11 11 11 11 11 11
Wind_Speed
3 5 3 4 5 6 3 2 1 2 3 3 4 6 6 4 3 2 2 1 1 1 3 3 5 7 8 9 9 9 10 10 11 11 11 11 11 11 11 11 11 11 11 11 11 11 11 11 11
3 3 4 4 5 4 2 2 1 2 4 4 5 5 5 4 2 3 1 0 2 2 3 4 6 7 8 9 9 9 10 10 10 10 10 11 11 11 11 11 11 11 11 11 11 11 11 12 11
3 3 4 5 4 3 2 1 3 3 3 2 4 4 4 2 2 2 1 2 3 3 3 4 6 7 8 8 9 9 9 10 10 10 10 10 11 12 11 11 11 11 12 12 11 11 11 11 11
3 4 5 6 5 1 2 2 2 3 4 4 4 4 3 2 2 2 3 4 3 3 3 3 6 7 7 8 8 9 9 9 9 10 10 10 11 11 11 11 11 11 11 12 11 11 11 11 11
4 4 6 4 3 2 1 1 3 3 3 4 4 4 3 4 3 5 5 4 3 2 3 3 5 6 6 7 8 8 8 8 9 10 10 10 11 11 11 11 11 11 11 11 11 11 11 11 11
4 5 5 3 2 2 2 2 4 4 4 3 4 4 1 2 3 3 4 3 3 2 3 3 4 5 5 6 7 8 8 8 9 10 10 10 10 10 10 10 11 11 11 11 11 11 11 11 11
4 5 4 3 2 2 1 2 4 4 3 2 4 4 1 0 2 3 3 3 3 3 3 4 4 5 5 6 6 7 8 8 9 10 10 9 9 10 10 10 10 10 11 11 11 11 11 11 11
4 5 4 2 2 1 1 3 2 4 2 2 4 5 3 3 3 4 4 4 3 3 3 3 4 5 5 5 6 6 7 8 9 9 9 9 8 9 9 9 9 10 11 11 11 11 12 12 12
4 5 3 3 4 1 1 3 2 2 5 3 2 3 3 6 6 6 4 3 2 2 2 2 3 4 4 4 5 6 7 8 8 9 9 9 8 8 8 9 9 10 11 11 11 12 13 13 12
5 4 3 3 5 3 2 3 3 4 4 2 3 4 6 7 7 6 4 3 1 0 1 1 2 3 4 4 5 6 6 7 8 7 7 7 7 7 7 8 9 10 10 11 12 13 13 12 10
4 4 2 1 3 4 3 2 2 6 2 4 5 6 7 6 6 5 4 3 2 1 1 1 1 2 3 3 4 5 5 6 6 7 6 6 6 6 7 7 8 9 9 9 10 10 9 9 8
3 1 2 2 3 3 3 3 3 3 4 3 6 8 8 7 6 5 4 3 2 1 0 0 1 2 2 3 3 4 4 4 4 5 5 5 4 4 5 5 6 6 6 6 6 6 7 8 8
2 0 1 2 3 3 3 3 2 2 1 3 6 8 8 7 5 3 3 3 2 2 1 1 2 2 2 3 3 3 3 3 3 4 5 4 3 3 4 4 5 5 5 5 4 5 5 6 6
2 2 2 2 2 2 3 1 1 3 3 6 7 7 7 6 5 4 3 3 3 2 2 1 2 2 3 3 2 2 3 3 4 4 4 4 4 3 3 3 3 4 4 5 4 4 4 4 4
2 3 3 1 1 1 4 2 3 3 5 6 6 6 6 5 5 5 5 5 4 3 2 2 3 3 3 3 2 3 3 3 3 3 4 4 4 3 3 2 2 3 4 5 5 5 4 4 4
4 4 1 3 2 3 4 4 6 3 7 6 6 5 5 4 5 5 5 4 4 3 3 2 3 4 3 3 2 3 4 4 3 3 4 4 4 4 4 3 2 3 4 4 3 3 3 3 3
3 1 2 3 2 3 4 5 5 3 7 6 6 6 6 5 4 4 4 5 5 5 4 3 3 4 4 3 3 4 4 4 4 4 4 4 4 4 4 3 2 3 3 3 2 3 2 2 3
4 3 2 4 3 3 4 6 5 3 6 7 7 6 6 6 7 5 5 5 5 4 4 4 3 3 4 4 3 3 4 3 4 4 4 4 4 4 4 3 3 3 3 3 3 3 3 2 2
4 3 3 4 3 3 5 6 7 4 5 6 7 7 8 8 6 4 4 5 5 4 4 4 4 3 4 3 2 2 1 1 2 3 4 4 4 4 4 3 3 3 2 2 3 3 3 2 2
4 3 2 3 1 3 3 6 6 5 6 8 9 10 9 7 5 5 4 5 6 6 5 5 5 4 4 3 2 2 2 1 1 2 4 4 4 3 3 3 2 2 2 3 2 2 2 1 2
4 5 5 4 1 3 1 6 4 4 3 4 6 7 7 9 8 7 6 6 6 6 7 6 5 4 4 4 3 3 3 2 2 2 2 3 3 3 3 3 2 2 2 2 1 1 2 1 1
5 5 5 4 2 2 1 4 7 4 4 5 6 6 7 8 7 6 6 7 7 8 6 6 6 5 4 4 4 4 3 2 1 1 0 2 3 2 2 2 2 2 2 1 1 1 1 2 1
5 1 3 2 3 1 1 2 8 2 5 7 7 7 7 8 8 7 8 8 8 7 6 5 5 4 4 5 5 5 3 2 1 0 1 2 2 2 2 2 2 2 1 1 1 1 1 1 2
4 6 6 5 4 2 4 4 7 4 6 6 7 7 7 6 7 6 6 6 5 5 5 5 5 4 4 5 5 5 5 3 2 1 0 1 1 1 2 2 2 1 1 1 1 1 2 1 1
5 5 3 4 3 5 3 3 8 6 5 6 7 7 6 6 6 6 5 6 6 6 6 5 5 4 4 5 4 5 5 5 4 3 2 1 0 1 1 1 1 1 1 1 1 1 1 1 1
4 7 6 4 4 5 2 5 7 5 4 3 4 4 4 4 5 6 7 7 7 8 7 7 7 6 5 5 5 4 4 3 3 3 2 2 2 1 1 0 1 1 1 1 1 1 0 1 1
5 4 6 6 2 2 5 6 8 2 2 1 0 2 3 4 5 6 7 7 7 8 8 9 8 6 6 5 5 4 4 3 3 2 2 1 1 1 1 1 1 1 1 1 1 0 0 0 1
5 8 5 5 3 3 5 5 5 5 4 2 2 2 3 3 4 5 5 6 7 7 7 6 7 7 5 5 5 4 4 3 3 2 2 2 1 1 1 1 1 1 1 1 1 0 0 0 1
4 4 4 4 4 5 3 6 5 6 5 5 5 4 3 4 4 4 5 5 6 5 6 6 6 5 4 5 4 4 4 3 3 3 3 2 2 1 2 1 1 0 0 1 1 1 1 1 1
4 6 7 4 4 4 3 6 5 4 4 4 4 3 3 3 3 2 3 3 4 4 5 5 5 5 5 5 5 5 4 3 3 3 3 2 2 2 2 1 1 0 0 0 0 1 1 1 2
Wind_Direction
114 102 83 59 56 55 52 4 16 48 53 37 62 81 93 86 92 123 278 77 74 12 2 53 66 65 69 73 72 71 73 74 72 70 69 71 73 74 73 71 70 71 70 68 66 66 68 68 70
118 104 58 60 77 74 12 339 73 85 133 132 75 71 74 62 67 106 10 82 86 59 33 56 68 69 73 75 73 70 72 74 74 72 69 70 72 74 73 71 70 71 71 70 69 69 68 67 67
118 65 76 66 84 129 146 188 135 84 95 103 78 60 78 82 93 145 203 137 84 55 43 56 72 73 75 76 75 72 71 72 75 74 71 70 71 71 69 69 70 70 70 70 68 68 70 68 66
84 49 59 70 77 122 170 183 136 103 59 56 90 72 61 29 144 157 127 116 95 53 40 53 72 73 76 75 73 71 70 70 72 73 70 69 70 69 67 67 68 68 67 67 66 68 68 67 65
61 72 63 60 42 3 34 115 103 87 64 55 83 90 46 5 70 111 118 116 105 65 33 47 69 69 72 73 70 69 71 72 71 69 68 65 66 68 67 66 67 66 65 65 65 63 62 64 66
55 65 78 77 25 4 24 88 102 88 88 83 91 100 75 30 90 119 119 112 99 79 44 39 57 59 62 65 66 65 67 67 67 67 65 64 61 62 64 65 67 65 62 63 61 60 60 64 68
93 85 104 114 77 25 65 104 113 116 112 133 129 109 117 207 158 122 111 109 85 60 44 29 27 34 44 52 62 65 64 64 63 63 62 61 59 57 58 62 65 63 62 61 61 61 61 65 70
112 97 90 97 115 39 59 106 116 122 132 117 119 134 187 207 152 112 92 80 71 52 37 26 18 28 32 35 50 60 62 63 60 59 58 56 52 49 46 51 57 61 62 63 64 63 66 69 71
83 79 122 173 163 169 99 105 83 82 98 81 86 155 181 134 124 110 88 61 57 57 33 29 18 21 31 36 40 48 52 53 55 53 54 52 43 42 42 46 51 59 62 64 66 65 68 68 68
79 111 185 193 172 156 117 116 132 96 82 77 66 65 95 113 126 132 134 142 136 105 16 35 44 34 30 38 43 46 49 50 52 53 52 52 48 45 47 46 47 56 62 63 66 66 64 61 60
103 146 182 156 160 137 122 114 117 126 162 199 172 148 127 122 128 145 159 168 188 190 117 81 87 58 48 44 52 53 54 53 51 54 57 59 54 47 44 42 41 44 51 53 56 57 58 60 62
104 120 148 150 132 122 138 133 117 165 216 206 168 150 142 143 149 161 165 176 174 143 165 67 95 80 64 63 59 60 57 55 47 45 52 63 58 48 46 47 43 46 52 57 56 60 60 61 63
107 111 82 103 103 117 112 123 155 226 245 117 124 136 150 157 162 172 167 161 147 157 165 147 128 115 87 78 66 68 59 61 54 47 45 66 75 62 53 50 49 48 56 66 65 63 61 59 58
144 104 71 69 95 123 127 96 111 235 133 127 141 158 167 169 170 163 164 168 168 175 176 152 145 130 107 97 85 68 61 62 59 50 46 58 77 81 71 58 53 49 52 63 73 73 71 63 59
89 76 23 350 116 147 114 347 242 224 144 149 166 174 175 180 176 179 184 181 177 179 173 158 156 123 118 111 95 77 67 70 65 56 52 58 73 86 90 72 53 53 64 65 68 67 68 63 56
67 67 9 286 172 166 139 249 260 200 156 174 182 186 185 194 198 197 190 180 175 166 162 167 143 126 120 111 95 73 65 65 59 61 62 64 74 83 87 77 59 66 78 76 71 63 62 54 52
47 121 231 284 211 162 170 236 261 172 168 189 195 198 198 204 221 215 197 184 177 171 161 155 137 133 124 105 84 74 66 61 53 58 59 61 69 77 85 77 66 78 80 70 78 63 74 71 55
208 201 226 245 240 161 199 242 261 202 183 201 207 208 207 211 223 210 197 183 172 160 155 150 139 127 113 95 78 63 54 42 44 47 48 57 64 73 84 78 70 80 79 65 65 76 65 73 68
171 177 229 252 230 178 223 247 255 222 201 212 217 216 217 223 227 201 185 171 160 155 157 159 152 143 127 114 110 96 68 29 27 33 46 56 65 74 85 81 73 74 89 90 90 88 76 59 63
173 193 242 291 252 186 239 267 263 215 210 211 212 217 217 221 216 203 187 173 176 177 180 175 172 165 160 148 134 130 122 85 33 22 37 43 56 66 75 82 80 85 94 82 80 88 94 56 44
207 195 208 222 1 32 11 314 285 261 232 227 222 218 215 213 211 204 194 193 187 189 191 189 183 177 168 140 109 87 67 50 34 23 15 15 40 63 81 95 94 90 107 117 109 111 130 131 34
233 224 192 181 134 290 62 289 286 262 264 240 233 223 218 215 209 201 199 198 197 199 189 182 176 175 168 150 143 141 145 166 215 225 300 355 27 52 77 94 96 104 108 120 153 123 140 135 135
209 119 135 152 154 343 344 207 286 299 260 250 238 230 223 210 203 203 204 202 202 195 183 178 170 171 167 160 160 151 154 174 158 72 38 12 10 28 57 80 85 97 115 147 154 128 133 141 161
131 74 62 53 76 281 244 192 277 252 235 251 237 231 223 208 202 205 203 194 196 187 177 171 170 176 172 169 169 168 170 168 156 169 166 340 347 0 28 60 73 85 96 147 155 144 127 141 150
94 93 35 1 5 257 254 204 251 254 239 229 228 227 220 201 193 195 194 192 191 186 184 179 176 183 177 174 180 182 181 178 186 197 200 204 279 319 318 37 56 61 91 111 111 129 137 153 148
163 144 160 200 228 275 291 236 255 263 274 252 227 212 198 193 197 201 204 200 194 192 187 185 190 192 183 184 191 188 180 181 197 201 192 197 218 234 258 60 58 51 71 73 86 119 212 143 160
137 163 165 141 167 258 279 286 301 272 325 346 161 156 192 204 207 210 209 201 193 194 195 192 192 192 190 193 188 184 183 187 199 202 184 189 215 209 106 83 59 48 60 70 80 79 292 154 177
137 143 109 127 165 255 289 280 262 275 268 276 264 240 237 222 223 222 211 204 199 196 193 186 187 192 193 189 189 189 189 192 192 178 179 183 197 173 133 120 92 53 37 49 76 2 307 174 266
112 111 117 126 154 167 256 272 243 240 241 227 241 245 234 219 225 228 221 207 197 187 182 181 184 183 181 183 183 180 185 177 167 174 187 185 181 169 171 178 163 166 4 13 28 321 325 276 288
167 166 151 161 213 183 196 264 283 256 256 232 248 258 243 222 224 234 221 193 179 184 184 183 186 187 188 181 177 183 179 170 174 190 200 187 182 185 183 170 165 225 265 255 230 282 297 251 258
Height
1502 1502 1502 1504 1508 1520 1524 1521 1517 1517 1517 1517 1517 1517 1519 1522 1525 1530 1526 1523 1523 1522 1521 1521 1520 1519 1519 1518 1518 1518 1517 1516 1516 1516 1516 1516 1516 1515 1515 1515 1514 1514 1514 1514 1514 1513 1514 1514 1513
1502 1503 1505 1505 1516 1530 1528 1520 1519 1517 1518 1518 1518 1519 1520 1522 1523 1525 1525 1524 1524 1523 1523 1522 1522 1521 1521 1520 1520 1519 1519 1519 1518 1518 1518 1518 1517 1517 1517 1516 1516 1516 1515 1515 1515 1515 1515 1515 1515
1503 1504 1506 1510 1521 1529 1526 1519 1518 1517 1518 1518 1520 1521 1523 1524 1525 1525 1526 1525 1525 1525 1524 1524 1523 1523 1523 1522 1522 1522 1521 1521 1520 1520 1520 1520 1519 1519 1518 1518 1518 1517 1517 1517 1517 1517 1517 1517 1517
1504 1506 1508 1516 1523 1522 1520 1518 1517 1518 1519 1520 1521 1523 1525 1526 1527 1527 1527 1526 1526 1526 1526 1525 1525 1525 1525 1524 1524 1524 1523 1523 1523 1522 1522 1521 1521 1521 1520 1520 1520 1519 1519 1519 1519 1519 1519 1518 1518
1505 1507 1515 1524 1523 1520 1518 1518 1518 1519 1520 1521 1522 1524 1526 1527 1527 1528 1528 1528 1528 1528 1528 1527 1527 1527 1527 1526 1526 1526 1525 1525 1525 1524 1524 1523 1523 1522 1522 1522 1521 1521 1521 1521 1520 1520 1520 1520 1520
1507 1509 1525 1530 1525 1520 1519 1519 1520 1520 1521 1522 1523 1525 1528 1529 1529 1529 1529 1529 1529 1529 1529 1529 1529 1529 1528 1528 1528 1527 1527 1527 1526 1526 1525 1525 1525 1524 1524 1524 1523 1523 1523 1522 1522 1522 1522 1522 1521
1509 1515 1525 1527 1527 1523 1520 1520 1521 1522 1522 1524 1524 1526 1528 1529 1530 1530 1530 1531 1531 1531 1531 1531 1531 1530 1530 1530 1530 1529 1529 1529 1528 1528 1527 1527 1526 1526 1526 1525 1525 1525 1524 1524 1524 1523 1523 1523 1523
1509 1516 1524 1527 1527 1524 1521 1521 1522 1523 1524 1525 1525 1526 1528 1529 1530 1531 1531 1532 1532 1532 1532 1532 1532 1532 1532 1531 1531 1531 1531 1530 1530 1529 1529 1528 1528 1527 1527 1527 1527 1526 1526 1526 1525 1525 1525 1524 1524
1510 1521 1528 1526 1525 1523 1521 1522 1523 1524 1524 1525 1526 1526 1528 1529 1530 1531 1532 1533 1533 1533 1533 1533 1533 1533 1533 1533 1533 1532 1532 1532 1531 1531 1530 1530 1529 1529 1529 1528 1528 1528 1527 1527 1527 1526 1526 1526 1526
1512 1524 1522 1519 1519 1520 1521 1522 1523 1524 1525 1526 1526 1527 1528 1529 1530 1531 1532 1533 1533 1533 1534 1534 1534 1534 1534 1534 1533 1533 1533 1533 1532 1532 1532 1531 1531 1531 1530 1530 1529 1529 1529 1529 1528 1528 1527 1527 1527
1513 1519 1518 1518 1518 1519 1521 1522 1523 1524 1526 1526 1526 1527 1528 1529 1530 1531 1532 1533 1534 1534 1535 1535 1535 1535 1535 1535 1534 1534 1534 1534 1533 1533 1533 1533 1532 1532 1532 1532 1531 1531 1530 1530 1530 1529 1529 1528 1528
1515 1517 1517 1518 1519 1520 1521 1522 1524 1524 1525 1525 1526 1527 1528 1529 1530 1532 1533 1534 1534 1535 1535 1535 1535 1535 1535 1535 1535 1535 1535 1535 1534 1534 1534 1534 1533 1533 1533 1533 1532 1532 1532 1531 1531 1531 1530 1530 1529
1516 1517 1518 1519 1519 1520 1521 1523 1524 1524 1525 1525 1526 1528 1528 1530 1531 1533 1534 1534 1535 1535 1536 1536 1536 1536 1536 1536 1536 1536 1536 1536 1535 1535 1535 1535 1534 1534 1534 1534 1534 1533 1533 1533 1532 1532 1532 1531 1531
1517 1518 1519 1520 1520 1521 1522 1524 1524 1524 1525 1525 1526 1527 1529 1530 1531 1533 1534 1534 1535 1535 1536 1536 1536 1536 1536 1536 1536 1536 1536 1536 1536 1536 1536 1536 1535 1535 1535 1535 1534 1534 1534 1534 1533 1533 1533 1532 1532
1517 1520 1521 1520 1521 1522 1523 1526 1524 1523 1524 1525 1526 1527 1529 1530 1531 1532 1533 1534 1535 1536 1536 1536 1536 1536 1536 1537 1537 1537 1537 1537 1536 1536 1536 1536 1536 1536 1536 1535 1535 1535 1535 1534 1534 1534 1534 1533 1533
1519 1524 1529 1523 1521 1522 1527 1531 1522 1522 1523 1524 1525 1527 1528 1530 1531 1532 1533 1534 1535 1536 1536 1536 1536 1536 1537 1537 1537 1537 1537 1537 1537 1537 1537 1536 1536 1536 1536 1536 1536 1535 1535 1535 1535 1534 1534 1534 1533
1527 1532 1531 1526 1521 1521 1525 1527 1521 1521 1522 1523 1524 1526 1527 1529 1530 1531 1532 1533 1534 1535 1536 1536 1536 1537 1537 1537 1537 1537 1537 1537 1537 1537 1537 1537 1536 1536 1536 1536 1536 1536 1535 1535 1535 1535 1535 1534 1534
1532 1531 1530 1528 1521 1522 1525 1525 1521 1520 1521 1522 1523 1525 1526 1527 1528 1530 1531 1532 1534 1535 1535 1536 1536 1537 1537 1537 1537 1537 1537 1537 1537 1537 1537 1537 1536 1536 1536 1536 1536 1536 1535 1535 1535 1535 1535 1534 1534
1523 1526 1528 1525 1520 1523 1525 1524 1521 1519 1520 1521 1521 1522 1524 1525 1527 1529 1530 1532 1533 1534 1535 1535 1536 1536 1536 1536 1537 1537 1537 1537 1537 1537 1537 1536 1536 1536 1536 1535 1535 1535 1535 1535 1535 1534 1534 1534 1534
1521 1526 1527 1524 1520 1522 1525 1524 1519 1518 1518 1518 1518 1520 1521 1523 1525 1527 1528 1530 1531 1532 1533 1534 1535 1535 1536 1536 1537 1537 1537 1537 1537 1536 1536 1536 1536 1535 1535 1535 1535 1535 1534 1534 1534 1534 1533 1533 1533
1521 1524 1524 1525 1522 1522 1525 1526 1520 1516 1516 1516 1517 1517 1519 1520 1522 1524 1526 1528 1529 1530 1532 1533 1534 1534 1535 1536 1536 1536 1536 1536 1536 1536 1536 1535 1535 1535 1535 1534 1534 1534 1534 1533 1533 1533 1533 1533 1533
1523 1515 1518 1521 1528 1534 1529 1540 1523 1518 1516 1514 1514 1515 1515 1517 1519 1521 1523 1525 1527 1528 1530 1531 1532 1533 1534 1535 1535 1535 1535 1535 1535 1535 1535 1535 1534 1534 1534 1534 1533 1533 1533 1532 1532 1532 1532 1532 1532
1515 1513 1517 1521 1527 1534 1533 1539 1529 1519 1517 1513 1511 1512 1512 1514 1516 1518 1521 1523 1525 1526 1528 1529 1531 1532 1533 1534 1534 1535 1535 1535 1534 1534 1534 1534 1534 1533 1533 1533 1532 1532 1532 1531 1531 1531 1531 1531 1531
1511 1517 1522 1529 1534 1543 1535 1538 1533 1521 1514 1510 1508 1508 1509 1511 1513 1516 1518 1520 1522 1524 1526 1527 1529 1530 1531 1532 1533 1533 1534 1534 1533 1533 1533 1533 1533 1532 1532 1532 1531 1531 1530 1530 1530 1530 1529 1529 1529
1514 1527 1542 1544 1550 1546 1533 1534 1528 1511 1507 1506 1505 1505 1506 1508 1510 1513 1515 1517 1519 1521 1523 1525 1526 1528 1529 1530 1531 1532 1532 1532 1532 1532 1532 1531 1531 1531 1531 1530 1530 1529 1529 1529 1528 1528 1528 1528 1527
1515 1523 1541 1548 1551 1545 1534 1534 1519 1506 1504 1503 1502 1503 1505 1506 1508 1510 1512 1514 1516 1518 1520 1522 1524 1525 1527 1528 1529 1530 1530 1530 1531 1531 1530 1530 1530 1530 1529 1529 1529 1528 1528 1527 1527 1527 1526 1526 1526
1516 1522 1523 1536 1540 1544 1538 1528 1513 1504 1503 1502 1502 1502 1503 1504 1506 1508 1510 1512 1513 1515 1517 1519 1521 1523 1524 1525 1527 1527 1528 1528 1529 1529 1529 1529 1528 1528 1528 1527 1527 1526 1526 1525 1525 1525 1524 1524 1524
1509 1517 1528 1536 1544 1548 1538 1531 1523 1508 1505 1503 1502 1501 1502 1503 1505 1506 1508 1509 1511 1513 1515 1517 1519 1520 1522 1523 1524 1525 1526 1526 1527 1527 1527 1527 1527 1526 1526 1526 1525 1525 1524 1524 1523 1523 1522 1522 1522
1514 1518 1524 1533 1536 1545 1545 1533 1509 1506 1503 1502 1501 1501 1501 1502 1503 1505 1506 1507 1509 1511 1513 1515 1517 1518 1520 1521 1522 1523 1524 1524 1524 1524 1524 1524 1524 1524 1524 1524 1523 1523 1522 1522 1521 1521 1521 1520 1520
1506 1512 1521 1530 1534 1538 1541 1531 1503 1502 1500 1500 1500 1500 1500 1501 1502 1503 1504 1506 1507 1509 1510 1512 1514 1516 1517 1519 1520 1521 1521 1522 1522 1522 1522 1522 1522 1522 1522 1522 1521 1521 1520 1520 1519 1519 1519 1519 1518